STARLINK-32355, 61634

Orbit data source: Space-Track

STARLINK-32355, 61634 is a payload satellite owned by SpaceX/Seattle (US) in LEO that was launched on Wed, 23 Oct 2024 UTC via an FALCON 9 launch vehicle from the Air Force Eastern Test Range (AFETR). Payload-class satellites include a variety of spacecraft equipped with specific instruments for various scientific and technological missions. These include communications satellites like Starlink; space stations such as the ISS; scientific satellites like the Hubble; Earth observation satellites from companies like Planet Labs, Umbra, and HawkEye 360; GPS; miniature CubeSats for education and research; and military/defense satellites.

Loading next visibility...
Identifier
61634, 2024-191P
Orbit
LEO
Country
Flag of USUS
Related business
Manufacturer
SpaceX/Seattle
Mission
Operational Commercial Communications
Bus & Motor
STARLINK V2M, Unknown motor
Mass
730 kg wet, ~700 kg dry
Launch date (UTC)
2024-10-23 (2 years ago)
Launch vehicle
FALCON 9
Launch site
Air Force Eastern Test Range (AFETR)
Object type
Payload
Rocket body
Debris
Shape & HBR
Box + 2 Pan, 17.7 m
Radar Cross Section
33.884 m², Large (>1 m²)

Expand to show TLE details & history
Last TLE update: 7 hours ago

TLE from 7 hours ago
0 STARLINK-32355
1 61634U 24191P   26171.41846613  .00000924  00000-0  43124-4 0  9990
2 61634  43.0033 298.1400 0001689 269.3806  90.6852 15.27574138 93204
Epoch: 2026-06-20T10:02Z
TLE epoch observation values (Epoch: 2026-06-20T10:02:35.473Z)
Latitude
-0.00003°
Longitude
-121.14121°
Altitude
482.856 km
Speed
7.626 km/s
True Right ascension
19h 52m 33s
True Declination
0° 00' 00"
Sunlit
Object was in full shadow at epoch
Visualization orbit readout
Latitude
Unknown
Longitude
Unknown
Altitude
Unknown
Speed
Unknown
Apparent Right ascension
Unknown
Apparent Declination
Unknown
Sunlit
N/A
Visualization observer readout
Local Sidereal Time
03:58:22
Azimuth
Unknown
Elevation
Unknown
Doppler factor
Unknown
Orbital elements
Apogee altitude
486.17 km
Perigee altitude
483.852 km
Semi-major axis
6,863.148 km
Eccentricity
0.00017
Inclination
43.0033°
RAAN
298.14°
Arg. of periapsis
269.3806°
True anomaly
90.70455°
Mean anomaly
90.6852°
Eccentric anomaly
90.69488°
Mean motion
3.81732 °/min
Orbital period
94.31 mins
BSTAR
0.000043124
Loading maneuver chart data...
Computing Atmospheric mass density...
Loading historical data...
Loading historical data...
Loading historical data...
Loading historical data...
Loading historical data...
Loading historical data...
Loading historical data...

Documentation

Showing up to 5 results
|